Wind_Speed
6 6 6 5 5 4 4 5 5 5 4 3 3 3 2 2 2 1 2 2 3 4 4 5 5 6 6 6 7 8 8 9 9 10 10 10 11 11 11 11 12 13 13
6 6 7 6 5 5 5 5 5 5 5 4 3 2 3 2 2 2 3 3 4 5 5 6 7 7 7 8 8 8 9 10 11 11 11 11 11 11 12 12 12 13 13
7 6 6 6 6 5 5 5 5 5 4 3 3 3 3 3 4 4 4 5 6 6 7 7 8 8 8 9 9 10 10 10 11 11 12 13 12 12 12 12 12 12 13
7 6 6 6 6 5 5 6 5 5 4 4 4 4 4 4 5 5 5 6 6 7 7 7 8 8 8 9 9 10 11 11 11 10 11 12 12 13 13 13 13 12 13
7 6 5 5 5 5 5 5 5 5 5 4 4 5 5 5 5 5 6 6 6 7 7 8 8 8 8 9 10 11 11 11 11 11 11 12 12 13 13 13 13 13 13
5 5 4 5 5 5 5 5 5 5 6 5 5 6 6 6 6 6 6 6 6 7 7 8 8 9 9 10 10 11 12 12 11 12 12 12 12 12 13 14 14 14 14
5 5 5 6 6 6 6 6 6 6 7 6 6 6 7 7 6 6 6 7 7 7 8 9 9 10 10 11 11 11 12 12 12 12 12 12 12 13 13 14 14 15 14
5 5 5 5 6 6 7 7 7 7 7 7 7 8 7 7 7 7 7 7 8 8 9 9 10 10 11 12 12 12 12 12 12 12 12 13 13 13 13 14 15 15 15
6 6 6 6 6 7 7 8 8 8 8 8 8 8 7 7 7 7 8 8 8 9 10 11 11 11 11 12 13 13 13 12 13 13 13 14 14 13 13 14 15 16 16
7 8 8 7 7 8 8 8 8 8 8 8 8 8 8 8 7 7 8 9 10 11 11 12 12 13 13 13 13 13 14 15 15 15 14 15 15 15 15 15 16 16 16
8 9 9 8 8 8 9 9 8 9 8 8 8 8 9 9 9 9 9 10 11 12 12 13 14 14 14 14 14 14 15 15 15 15 15 15 15 16 16 16 17 17 18
8 8 9 8 9 9 9 10 10 10 9 9 9 9 9 9 9 9 10 10 11 12 13 13 14 14 15 15 15 15 15 15 16 16 15 15 16 16 16 16 17 18 19
8 8 9 9 9 9 10 10 10 11 10 10 10 10 10 10 10 11 11 11 12 13 13 14 15 15 14 15 15 14 15 15 15 15 16 16 16 17 17 17 18 19 19
8 9 9 10 10 10 11 11 11 11 11 11 11 10 10 10 11 12 12 13 13 13 14 14 15 15 14 15 14 15 15 15 16 16 16 17 17 17 17 18 19 19 20
9 10 10 11 12 12 12 12 12 12 12 12 12 12 12 12 12 12 13 13 14 14 14 15 15 15 16 16 15 16 16 16 17 17 17 17 18 17 18 19 19 20 21
10 11 11 12 13 13 13 13 13 12 12 12 12 12 13 13 14 14 14 14 15 15 15 16 16 17 16 16 16 16 16 17 17 17 18 18 18 19 19 19 20 21 21
12 13 13 14 14 14 14 14 14 14 14 14 14 14 14 15 15 15 16 16 17 17 17 17 18 18 17 17 17 17 17 17 18 18 18 19 20 20 21 21 21 21 22
13 14 15 15 15 15 15 14 15 15 15 15 15 15 16 16 16 16 17 18 18 18 18 19 19 19 18 18 17 18 18 19 19 20 20 20 21 21 22 22 22 22 22
14 14 15 15 15 16 16 15 16 16 16 16 16 17 17 17 18 18 19 19 20 20 20 20 20 20 20 19 19 19 19 20 21 21 22 22 23 23 23 23 23 23 23
15 15 16 16 16 16 16 17 17 17 17 17 18 18 18 19 20 20 20 21 21 21 21 21 20 21 20 20 20 20 20 21 22 22 23 24 24 24 24 24 24 24 24
16 16 16 17 17 17 17 18 18 18 18 19 19 19 20 20 21 21 22 22 22 22 22 22 21 21 21 21 21 21 22 22 23 23 24 24 24 24 25 25 25 25 25
17 17 17 17 18 18 18 19 19 20 19 20 20 21 21 22 22 22 23 22 23 23 23 23 23 22 22 22 22 23 22 23 23 24 24 24 25 25 25 26 26 26 26
18 19 18 18 19 19 20 20 21 20 21 21 22 22 23 23 23 23 23 23 23 23 24 24 24 23 23 23 23 23 23 23 23 24 24 24 24 25 25 25 26 26 26
20 20 19 20 20 21 21 22 22 22 23 23 24 24 24 25 24 24 24 24 24 24 25 25 25 25 24 24 24 24 24 24 25 25 25 25 25 26 26 26 27 26 27
21 21 21 22 22 23 23 24 24 24 25 24 25 25 25 25 25 25 25 25 25 25 25 26 26 26 25 25 25 25 26 26 26 25 26 25 25 26 27 27 26 26 26
23 22 23 24 24 24 24 25 25 26 26 25 26 25 25 25 26 26 26 26 26 26 26 26 26 26 26 26 27 27 26 26 26 26 27 26 26 27 26 26 25 25 26
Wind_Direction
64 65 70 81 73 66 51 49 37 39 43 35 32 31 15 29 22 355 331 331 324 314 304 299 293 288 290 287 286 287 285 277 272 271 271 274 273 271 270 271 270 267 265
69 72 72 69 63 57 53 47 37 31 35 30 21 7 348 342 336 315 311 312 310 311 306 301 297 292 291 293 290 290 289 284 276 273 273 272 271 272 271 271 272 268 265
65 70 70 63 54 52 43 38 30 28 26 17 5 346 331 319 317 309 307 306 302 304 307 305 300 298 297 296 292 291 290 292 287 280 276 271 270 270 270 274 276 271 266
58 59 57 49 45 37 29 25 15 8 1 349 342 330 322 316 310 303 302 300 297 300 306 308 305 303 302 299 298 296 295 289 292 285 281 276 274 270 270 271 272 270 271
51 51 46 34 26 20 20 13 6 359 348 339 332 327 321 316 315 309 300 297 299 302 302 303 303 303 302 298 297 297 296 293 292 288 286 280 279 272 268 269 271 273 271
46 38 30 27 19 14 11 3 360 356 348 342 332 330 330 322 315 308 298 292 296 302 303 303 303 303 301 298 298 299 297 295 291 290 289 283 277 273 271 270 271 270 269
38 28 21 17 12 5 360 356 352 344 339 337 329 323 322 319 317 316 310 305 301 302 303 304 303 300 300 300 300 302 301 297 292 290 289 285 281 277 274 272 270 269 267
29 17 10 6 3 359 353 349 344 336 332 329 321 311 310 308 310 312 313 310 309 309 308 307 304 303 304 302 304 302 303 299 293 289 288 284 281 278 276 273 271 268 267
14 9 7 4 1 353 347 343 341 337 330 325 324 320 316 310 307 311 311 309 309 307 306 304 302 303 304 307 305 303 301 300 295 290 285 283 281 279 278 275 272 271 269
12 5 5 3 1 357 349 344 341 338 334 328 324 319 317 314 310 309 307 306 305 303 303 301 299 299 301 302 303 303 299 296 293 290 286 285 283 279 277 275 271 272 270
3 1 359 357 357 356 351 345 342 338 334 332 331 324 319 316 313 312 310 303 303 304 302 301 299 298 298 299 300 300 299 297 293 289 286 286 283 282 280 278 274 273 272
355 354 353 352 351 351 347 345 343 338 333 330 329 326 321 318 315 312 314 311 306 304 305 304 302 298 298 296 297 297 297 296 294 290 286 284 282 282 280 278 278 277 274
348 348 350 350 346 345 341 337 334 333 332 326 323 322 320 319 318 316 314 313 311 308 307 305 304 301 299 296 296 298 298 296 294 290 287 286 284 285 285 281 279 278 278
337 337 341 341 339 338 336 334 330 327 324 323 320 318 318 316 316 316 313 313 312 310 309 307 308 304 302 299 299 300 300 298 296 293 290 287 288 286 285 284 280 280 279
327 327 330 332 331 331 331 331 329 326 321 318 317 318 318 318 317 313 310 309 309 311 309 308 307 307 304 302 299 300 300 299 298 296 293 291 289 287 286 285 286 283 279
322 321 322 323 324 324 324 325 325 324 320 317 314 313 313 314 315 313 309 307 306 306 307 307 306 303 302 302 303 302 302 301 298 296 293 291 288 288 289 288 287 286 281
318 319 318 318 317 317 318 319 319 320 317 315 313 310 309 309 310 310 309 307 305 304 305 304 303 301 300 298 299 301 301 300 298 297 295 292 289 288 289 289 288 288 285
315 317 317 316 315 315 314 315 316 317 316 314 313 311 309 308 306 307 308 307 305 303 303 303 301 300 299 296 294 296 298 298 299 298 295 294 293 292 291 290 289 289 287
311 313 314 314 313 314 314 314 314 315 313 311 311 312 311 309 307 306 306 306 305 304 303 302 300 300 298 295 294 295 298 298 300 299 296 294 293 293 292 291 291 288 287
308 310 310 311 311 312 312 313 312 312 311 309 309 309 309 309 308 306 306 305 305 304 303 302 301 301 298 295 294 294 295 296 298 299 298 296 295 294 292 291 290 289 286
304 306 307 308 308 309 309 311 312 310 309 308 307 307 307 309 308 306 304 304 305 305 302 300 299 300 299 297 295 294 294 294 295 297 298 297 296 295 293 291 289 289 288
301 303 305 305 306 307 308 308 309 309 308 308 307 306 307 309 307 306 304 304 305 305 303 301 298 299 298 298 296 294 294 293 295 296 295 295 294 292 292 291 290 288 287
300 301 301 303 304 305 305 304 304 305 305 305 305 305 306 306 305 305 305 305 304 304 303 303 300 299 299 298 298 296 295 296 296 297 295 295 295 293 294 294 291 288 287
299 300 300 301 301 302 303 303 302 302 303 302 302 304 304 306 306 304 304 303 303 302 303 302 301 301 300 299 299 298 295 297 300 300 299 298 295 294 294 295 292 290 288
297 299 299 300 301 301 301 301 301 301 302 301 301 303 303 303 304 303 302 302 301 300 300 301 301 300 299 300 300 299 298 299 300 300 301 300 299 299 298 297 295 292 289
294 297 299 299 300 299 299 300 301 301 301 301 300 302 303 303 303 303 303 302 301 301 299 298 298 298 297 297 297 298 299 300 301 301 302 302 302 301 300 298 296 295 291
Height
5893 5893 5893 5892 5892 5892 5891 5891 5890 5890 5889 5888 5888 5888 5887 5886 5886 5886 5885 5884 5884 5883 5882 5881 5881 5880 5879 5878 5877 5877 5876 5875 5875 5874 5873 5873 5872 5872 5872 5871 5871 5870 5870
5894 5894 5893 5893 5893 5893 5892 5892 5891 5890 5890 5889 5889 5888 5887 5886 5886 5885 5884 5884 5883 5882 5881 5880 5879 5878 5877 5876 5875 5875 5874 5873 5872 5871 5871 5870 5870 5869 5869 5868 5868 5867 5867
5895 5895 5895 5895 5894 5894 5893 5892 5892 5891 5890 5890 5889 5888 5887 5886 5885 5884 5883 5883 5882 5881 5880 5879 5877 5876 5875 5874 5873 5872 5871 5870 5869 5868 5868 5867 5867 5866 5866 5865 5865 5864 5864
5896 5896 5896 5895 5895 5894 5894 5893 5892 5891 5890 5889 5888 5887 5886 5885 5884 5883 5882 5881 5880 5879 5878 5877 5876 5874 5873 5872 5870 5869 5868 5867 5866 5865 5864 5864 5863 5863 5863 5862 5862 5861 5861
5897 5897 5896 5896 5895 5894 5893 5892 5891 5890 5889 5888 5887 5886 5885 5884 5883 5881 5880 5879 5878 5877 5876 5875 5873 5872 5871 5869 5868 5867 5866 5864 5863 5862 5861 5860 5860 5859 5859 5859 5858 5858 5858
5898 5897 5897 5896 5895 5894 5893 5892 5891 5889 5888 5887 5886 5885 5883 5882 5881 5880 5879 5878 5876 5875 5874 5872 5871 5870 5868 5867 5865 5864 5863 5861 5860 5859 5858 5857 5856 5856 5856 5855 5855 5855 5854
5898 5897 5896 5896 5895 5894 5892 5891 5889 5888 5887 5886 5885 5883 5882 5881 5879 5878 5877 5876 5874 5873 5872 5870 5869 5867 5866 5864 5862 5861 5859 5858 5857 5856 5855 5854 5853 5852 5852 5851 5851 5851 5851
5898 5897 5896 5895 5894 5893 5891 5890 5888 5887 5886 5884 5883 5882 5880 5879 5877 5876 5875 5873 5872 5871 5869 5868 5867 5865 5863 5861 5859 5858 5856 5855 5854 5853 5852 5851 5850 5849 5848 5848 5848 5847 5847
5898 5897 5896 5895 5893 5892 5890 5889 5887 5885 5884 5882 5881 5880 5878 5877 5876 5875 5873 5871 5870 5868 5867 5866 5864 5862 5861 5858 5856 5855 5853 5852 5850 5849 5848 5847 5846 5845 5845 5844 5844 5843 5843
5898 5896 5895 5894 5892 5891 5889 5887 5885 5884 5882 5880 5879 5877 5876 5875 5874 5873 5871 5869 5867 5866 5864 5862 5861 5859 5857 5855 5853 5851 5850 5848 5846 5845 5844 5843 5842 5841 5840 5840 5839 5839 5838
5897 5896 5894 5893 5891 5889 5888 5885 5883 5882 5880 5878 5877 5875 5873 5872 5870 5869 5868 5867 5865 5863 5861 5859 5857 5855 5853 5851 5850 5848 5846 5844 5842 5841 5840 5839 5837 5837 5836 5835 5835 5834 5834
5897 5895 5894 5892 5890 5888 5886 5884 5882 5880 5878 5876 5875 5873 5871 5870 5868 5866 5865 5863 5861 5860 5857 5855 5853 5851 5849 5847 5845 5844 5842 5840 5838 5836 5835 5834 5833 5832 5831 5830 5829 5829 5828
5896 5894 5892 5891 5889 5887 5885 5882 5880 5878 5876 5874 5872 5870 5869 5867 5865 5863 5861 5859 5858 5856 5854 5852 5849 5847 5845 5843 5841 5840 5838 5836 5834 5832 5831 5829 5828 5827 5826 5825 5824 5824 5823
5894 5892 5891 5889 5887 5885 5883 5880 5878 5876 5874 5872 5869 5867 5866 5864 5862 5860 5858 5856 5854 5852 5850 5848 5845 5843 5841 5839 5837 5836 5834 5832 5830 5828 5826 5825 5823 5822 5821 5820 5819 5818 5817
5893 5891 5889 5887 5885 5883 5880 5878 5875 5873 5871 5869 5867 5865 5862 5860 5858 5856 5854 5852 5851 5848 5846 5844 5842 5840 5837 5835 5833 5831 5829 5827 5825 5823 5821 5820 5818 5817 5815 5814 5813 5812 5811
5890 5889 5887 5885 5882 5880 5878 5875 5873 5870 5868 5866 5864 5861 5859 5857 5855 5852 5850 5848 5846 5844 5842 5840 5837 5835 5833 5831 5828 5826 5825 5823 5820 5818 5817 5815 5813 5811 5810 5809 5807 5806 5805
5888 5886 5884 5882 5879 5877 5875 5872 5870 5867 5865 5862 5860 5858 5856 5853 5851 5849 5846 5844 5842 5840 5838 5836 5833 5830 5828 5826 5824 5822 5820 5818 5816 5813 5812 5810 5807 5806 5805 5803 5801 5800 5798
5885 5883 5881 5878 5876 5873 5871 5868 5866 5864 5861 5859 5857 5854 5852 5849 5847 5845 5842 5840 5837 5835 5833 5831 5828 5825 5823 5821 5819 5817 5815 5813 5811 5808 5806 5804 5802 5800 5798 5797 5795 5793 5792
5882 5880 5877 5875 5872 5870 5867 5865 5863 5860 5858 5855 5853 5850 5848 5845 5843 5840 5837 5835 5832 5830 5827 5825 5822 5820 5818 5816 5814 5812 5810 5807 5805 5803 5800 5798 5796 5794 5792 5790 5789 5787 5785
5878 5876 5874 5871 5869 5866 5864 5861 5859 5856 5853 5851 5848 5846 5843 5840 5838 5835 5832 5830 5827 5825 5822 5819 5817 5814 5812 5810 5808 5806 5804 5802 5799 5797 5794 5792 5790 5788 5786 5784 5782 5780 5778
5874 5872 5869 5867 5865 5862 5860 5857 5855 5852 5849 5846 5843 5840 5838 5835 5832 5829 5827 5824 5822 5819 5816 5814 5811 5809 5806 5804 5802 5799 5797 5796 5793 5790 5788 5786 5783 5781 5778 5776 5774 5772 5770
5870 5867 5865 5862 5860 5857 5855 5852 5850 5847 5844 5841 5838 5835 5832 5829 5827 5824 5821 5819 5816 5813 5811 5808 5806 5803 5801 5798 5796 5793 5791 5789 5787 5785 5782 5779 5776 5773 5771 5768 5766 5764 5762
5864 5862 5860 5857 5855 5852 5850 5847 5844 5842 5839 5836 5833 5830 5827 5824 5821 5818 5815 5812 5810 5807 5805 5803 5800 5797 5795 5792 5790 5787 5785 5782 5780 5777 5775 5772 5769 5766 5763 5760 5757 5756 5754
5859 5857 5854 5852 5849 5847 5844 5842 5839 5836 5833 5830 5827 5824 5821 5818 5815 5812 5809 5806 5804 5801 5798 5796 5794 5791 5788 5785 5783 5781 5778 5776 5773 5770 5767 5764 5761 5759 5756 5753 5749 5747 5745
5853 5851 5849 5846 5844 5841 5838 5835 5832 5830 5827 5824 5821 5818 5815 5812 5809 5806 5803 5800 5798 5795 5792 5789 5786 5784 5781 5778 5776 5774 5772 5769 5766 5763 5760 5757 5754 5751 5748 5744 5741 5738 5736
5847 5844 5842 5840 5837 5834 5831 5828 5825 5823 5820 5817 5814 5811 5808 5805 5802 5799 5796 5793 5791 5788 5785 5782 5779 5777 5774 5772 5769 5767 5764 5762 5759 5756 5752 5749 5746 5742 5740 5737 5733 5730 5728